Webcam Zuidwest  Webcam Zuidwest


Onweer radar more information blitzortung!


Regen radar more information rain snow radar


Weerstation Alkmaar Centrum

Weerstation Luyksgestel

Website Noardburgum


U vindt ons ook hier:

Het Weer Aktueel

UK Metoffice

European Weather Network

Weather Underground

AWEKAS

Citizen Weather Observer Program (CWOP)

HAMweather, WeatherForYou, PWS Weather



Het weer levert geen direct gevaar op.    Er zijn geen waarschuwingen afgegeven.
IFRIESLA82 History tables / reports. Script startWUhistory.php

Select another period ( hide this area )

Eenheden Periode Custom range Directly to
Metrisch Engels Beide
Dagelijkse Wekelijkse Maandelijkse Jaarlijkse
use both date-selectors for a custom range
previous Dag
With this date

WeatherUnderground graphs for this period ( click here ) Loading the graph can take up to a minute!


Dagelijkse Samenvatting Zondag Apr 11 2021
Tijd Temp. ( °C ) Dew pt. ( °C ) Wind ( km/h ) van Windvlaag ( km/h ) Luchtdruk ( hPa ) Humid.( % ) Rainrate ( cm ) Zonneschijn ( W/m2 )
Hoog3,8 2,3 35,0 NNO ( 1779/2405 ) 39,0 1010,8 93 2,03 98
Gemiddeld3,1 1,8 22,5 NNO #78/107 29,2 1009,3 92 1,70 44 #28/107
Laag2,4 1,2 6,0   18,0 1008,1 89 -  
Dagelijkse Tabular details for Zondag Apr 11 2021
Tijd Temp. ( °C ) Dew pt. ( °C ) Wind ( km/h ) van Windvlaag ( km/h ) Luchtdruk ( hPa ) Humid.( % ) Rainrate ( cm ) Zonneschijn ( W/m2 )
00:04 2,9 1,7 23,0 NNO 35,0 1010,8 92 1,52 -
00:09 2,7 1,5 27,0 NO 37,0 1010,8 92 1,52 -
00:14 2,8 1,6 27,0 NO 27,0 1010,8 92 1,52 -
00:19 2,7 1,5 31,0 NO 37,0 1010,8 92 1,52 -
00:24 2,8 1,6 21,0 NO 27,0 1010,5 92 1,78 -
00:29 2,7 1,5 26,0 NNO 31,0 1010,5 92 1,78 -
00:34 2,7 1,5 29,0 NNO 35,0 1010,8 92 1,78 -
00:39 2,7 1,5 27,0 NO 29,0 1010,5 92 1,78 -
00:44 2,7 1,5 23,0 NNO 32,0 1010,5 92 1,78 -
00:49 2,7 1,5 23,0 NNO 29,0 1010,5 92 1,78 -
00:54 2,6 1,4 31,0 NNO 32,0 1010,5 92 1,78 -
00:59 2,4 1,2 24,0 NO 39,0 1010,5 92 2,03 -
01:04 2,6 1,4 18,0 NO 39,0 1010,5 92 2,03 -
01:09 2,5 1,3 24,0 NNO 35,0 1010,2 92 2,03 -
01:14 2,5 1,3 26,0 NO 35,0 1010,2 92 2,03 -
01:24 2,5 1,3 27,0 NNO 35,0 1010,2 92 2,03 -
01:29 2,5 1,3 31,0 NNO 35,0 1010,2 92 1,78 -
01:34 2,6 1,4 21,0 NNO 35,0 1010,2 92 1,78 -
01:39 2,6 1,4 24,0 NNO 27,0 1010,2 92 1,78 -
01:44 2,6 1,4 24,0 NNO 35,0 1009,8 92 1,78 -
01:49 2,6 1,4 23,0 NNO 27,0 1009,8 92 1,52 -
01:54 2,7 1,5 23,0 NNO 35,0 1009,8 92 1,52 -
01:59 2,6 1,4 18,0 NNO 35,0 1009,8 92 1,52 -
02:04 2,7 1,5 27,0 NNO 35,0 1009,5 92 1,27 -
02:06 2,7 1,5 6,0 ONO 23,0 1009,5 92 1,02 -
02:14 2,7 1,5 21,0 Noorden 26,0 1009,5 92 1,27 -
02:19 2,7 1,5 20,0 NO 24,0 1009,5 92 1,02 -
02:24 2,7 1,5 35,0 NNO 35,0 1009,5 92 1,02 -
02:29 2,7 1,5 21,0 NO 27,0 1009,5 92 0,76 -
02:34 2,8 1,6 29,0 NNO 35,0 1009,1 92 0,76 -
02:39 2,8 1,6 20,0 NNO 23,0 1009,1 92 0,76 -
02:44 2,8 1,6 26,0 NO 27,0 1008,8 92 0,51 -
02:54 2,8 1,6 23,0 NNO 26,0 1009,1 92 0,51 -
03:04 3,0 1,9 23,0 NNO 27,0 1009,1 93 0,51 -
03:09 3,1 1,9 21,0 NNO 32,0 1009,1 92 0,51 -
03:14 3,1 1,9 20,0 NNO 34,0 1009,1 92 0,25 -
03:19 3,1 1,9 18,0 NNO 23,0 1009,1 92 0,25 -
03:24 3,2 2,0 24,0 NNO 29,0 1008,8 92 0,25 -
03:29 3,2 2,0 20,0 NNO 26,0 1008,8 92 0,25 -
03:34 3,2 2,0 27,0 NNO 29,0 1008,5 92 0,25 -
03:44 3,3 2,1 23,0 NNO 29,0 1008,5 92 - -
03:49 3,3 2,1 20,0 NNO 31,0 1008,5 92 0,25 -
03:54 3,3 2,1 29,0 NNO 32,0 1008,5 92 0,25 -
03:59 3,3 2,1 16,0 NO 32,0 1008,5 92 0,25 -
04:04 3,3 2,1 23,0 NNO 35,0 1008,5 92 0,25 -
04:09 3,3 2,1 27,0 NO 35,0 1008,5 92 0,25 -
04:14 3,3 2,1 29,0 NNO 35,0 1008,5 92 0,51 -
04:19 3,3 2,1 24,0 NNO 35,0 1008,5 92 0,51 -
04:29 3,3 2,1 24,0 Noorden 27,0 1008,5 92 0,51 -
04:34 3,2 2,0 24,0 NNO 29,0 1008,5 92 0,51 -
04:39 3,2 2,0 24,0 NNO 27,0 1008,5 92 0,51 -
04:44 3,2 2,0 21,0 NNO 29,0 1008,5 92 0,51 -
04:49 3,2 2,0 24,0 NNO 29,0 1008,5 92 0,51 -
04:54 3,1 1,9 26,0 NNO 31,0 1008,5 92 0,51 -
04:59 3,2 2,0 14,0 NNO 31,0 1008,5 92 0,51 -
05:04 3,1 1,9 23,0 NNO 31,0 1008,5 92 0,51 -
05:09 3,2 2,0 29,0 NNO 29,0 1008,5 92 0,51 -
05:14 3,2 2,0 27,0 NNO 27,0 1008,5 92 0,51 -
05:19 3,2 2,0 32,0 NNO 32,0 1008,1 92 0,51 -
05:24 3,2 2,0 23,0 NNO 31,0 1008,1 92 0,51 -
05:29 3,2 2,0 23,0 NNO 31,0 1008,5 92 0,51 -
05:34 3,2 2,0 23,0 NNO 27,0 1008,5 92 0,51 -
05:39 3,2 2,0 20,0 NNO 26,0 1008,5 92 0,51 -
05:44 3,2 2,0 21,0 NNO 27,0 1008,8 92 0,51 -
05:49 3,2 2,0 18,0 NNO 27,0 1008,5 92 0,51 -
05:54 3,2 2,0 23,0 NNO 27,0 1008,8 92 0,76 -
05:59 3,2 2,0 21,0 NNO 24,0 1008,8 92 0,76 -
06:04 3,1 1,9 20,0 NNO 26,0 1008,8 92 1,02 -
06:09 3,0 1,8 24,0 Noorden 29,0 1008,8 92 1,02 -
06:14 3,1 1,9 13,0 NNO 29,0 1008,8 92 0,76 -
06:19 3,1 1,9 23,0 NNO 29,0 1008,8 92 1,02 -
06:24 3,1 1,9 26,0 NNO 29,0 1009,1 92 1,02 -
06:29 3,1 1,9 20,0 Noorden 24,0 1009,1 92 1,02 -
06:34 3,1 1,9 29,0 NNO 29,0 1009,1 92 0,76 -
06:39 3,1 1,9 20,0 Noorden 29,0 1008,8 92 0,76 -
06:44 3,1 1,9 21,0 NNO 29,0 1008,8 92 1,02 -
06:49 3,1 1,9 21,0 Noorden 29,0 1008,8 92 0,76 -
06:54 3,1 1,9 26,0 NNO 32,0 1008,8 92 0,76 -
06:59 3,1 1,9 18,0 NNO 32,0 1008,8 92 0,51 -
07:04 3,1 1,9 24,0 Noorden 24,0 1009,1 92 0,51 5
07:09 3,1 1,9 24,0 NNO 29,0 1008,8 92 0,51 9
07:14 3,1 1,9 31,0 NNO 31,0 1008,8 92 0,51 7
07:19 3,1 1,9 20,0 NNO 29,0 1009,1 92 0,51 7
07:24 3,2 2,0 16,0 NNO 18,0 1009,1 92 0,25 7
07:29 3,2 2,0 16,0 Noorden 26,0 1009,1 92 0,25 9
07:34 3,2 2,0 21,0 NNO 26,0 1009,1 92 0,25 12
07:39 3,2 2,0 18,0 NNO 24,0 1009,1 92 0,25 11
07:44 3,2 1,9 21,0 NNO 23,0 1009,1 91 0,25 21
07:49 3,3 2,0 16,0 NNO 24,0 1009,1 91 - 26
07:54 3,3 2,0 20,0 NNO 27,0 1009,1 91 - 28
07:59 3,3 2,0 21,0 NNO 27,0 1009,5 91 - 28
08:09 3,3 2,0 18,0 Noorden 27,0 1009,5 91 - 39
08:14 3,3 2,0 14,0 NNO 24,0 1009,5 91 - 40
08:19 3,4 2,1 14,0 NNO 21,0 1009,5 91 - 26
08:24 3,4 2,1 24,0 NNO 24,0 1009,5 91 - 56
08:29 3,5 2,2 27,0 NNO 27,0 1009,5 91 - 77
08:34 3,6 2,1 18,0 NNO 27,0 1009,8 90 - 90
08:39 3,7 2,2 23,0 NNO 23,0 1009,8 90 - 93
08:44 3,8 2,2 18,0 Noorden 26,0 1009,8 90 - 93
08:49 3,8 2,3 20,0 NNO 26,0 1009,8 90 - 49
08:54 3,8 2,2 18,0 Noorden 24,0 1010,2 89 - 37
08:59 3,6 2,0 26,0 Noorden 31,0 1010,2 90 0,25 44
09:04 3,3 1,8 21,0 Noorden 31,0 1010,2 90 0,51 63
09:09 3,1 1,8 16,0 NNO 26,0 1010,2 91 0,51 95
09:14 3,2 1,9 20,0 Noorden 26,0 1010,2 91 0,51 86
09:19 3,2 1,9 18,0 Noorden 27,0 1010,2 91 0,51 98
09:24 3,3 2,1 18,0 NNO 27,0 1010,2 92 0,51 86
Dagelijkse Samenvatting Zondag Apr 11 2021
Tijd Temp. ( °C ) Dew pt. ( °C ) Wind ( km/h ) van Windvlaag ( km/h ) Luchtdruk ( hPa ) Humid.( % ) Rainrate ( cm ) Zonneschijn ( W/m2 )
Hoog3,8 2,3 35,0 NNO ( 1779/2405 ) 39,0 1010,8 93 2,03 98
Gemiddeld3,1 1,8 22,5 NNO #78/107 29,2 1009,3 92 1,70 44 #28/107
Laag2,4 1,2 6,0   18,0 1008,1 89 -  
Dagelijkse Tabular details for Zondag Apr 11 2021
Tijd Temp. ( °C ) Dew pt. ( °C ) Wind ( km/h ) van Windvlaag ( km/h ) Luchtdruk ( hPa ) Humid.( % ) Rainrate ( cm ) Zonneschijn ( W/m2 )
00:04 2,9 1,7 23,0 NNO 35,0 1010,8 92 1,52 -
00:09 2,7 1,5 27,0 NO 37,0 1010,8 92 1,52 -
00:14 2,8 1,6 27,0 NO 27,0 1010,8 92 1,52 -
00:19 2,7 1,5 31,0 NO 37,0 1010,8 92 1,52 -
00:24 2,8 1,6 21,0 NO 27,0 1010,5 92 1,78 -
00:29 2,7 1,5 26,0 NNO 31,0 1010,5 92 1,78 -
00:34 2,7 1,5 29,0 NNO 35,0 1010,8 92 1,78 -
00:39 2,7 1,5 27,0 NO 29,0 1010,5 92 1,78 -
00:44 2,7 1,5 23,0 NNO 32,0 1010,5 92 1,78 -
00:49 2,7 1,5 23,0 NNO 29,0 1010,5 92 1,78 -
00:54 2,6 1,4 31,0 NNO 32,0 1010,5 92 1,78 -
00:59 2,4 1,2 24,0 NO 39,0 1010,5 92 2,03 -
01:04 2,6 1,4 18,0 NO 39,0 1010,5 92 2,03 -
01:09 2,5 1,3 24,0 NNO 35,0 1010,2 92 2,03 -
01:14 2,5 1,3 26,0 NO 35,0 1010,2 92 2,03 -
01:24 2,5 1,3 27,0 NNO 35,0 1010,2 92 2,03 -
01:29 2,5 1,3 31,0 NNO 35,0 1010,2 92 1,78 -
01:34 2,6 1,4 21,0 NNO 35,0 1010,2 92 1,78 -
01:39 2,6 1,4 24,0 NNO 27,0 1010,2 92 1,78 -
01:44 2,6 1,4 24,0 NNO 35,0 1009,8 92 1,78 -
01:49 2,6 1,4 23,0 NNO 27,0 1009,8 92 1,52 -
01:54 2,7 1,5 23,0 NNO 35,0 1009,8 92 1,52 -
01:59 2,6 1,4 18,0 NNO 35,0 1009,8 92 1,52 -
02:04 2,7 1,5 27,0 NNO 35,0 1009,5 92 1,27 -
02:06 2,7 1,5 6,0 ONO 23,0 1009,5 92 1,02 -
02:14 2,7 1,5 21,0 Noorden 26,0 1009,5 92 1,27 -
02:19 2,7 1,5 20,0 NO 24,0 1009,5 92 1,02 -
02:24 2,7 1,5 35,0 NNO 35,0 1009,5 92 1,02 -
02:29 2,7 1,5 21,0 NO 27,0 1009,5 92 0,76 -
02:34 2,8 1,6 29,0 NNO 35,0 1009,1 92 0,76 -
02:39 2,8 1,6 20,0 NNO 23,0 1009,1 92 0,76 -
02:44 2,8 1,6 26,0 NO 27,0 1008,8 92 0,51 -
02:54 2,8 1,6 23,0 NNO 26,0 1009,1 92 0,51 -
03:04 3,0 1,9 23,0 NNO 27,0 1009,1 93 0,51 -
03:09 3,1 1,9 21,0 NNO 32,0 1009,1 92 0,51 -
03:14 3,1 1,9 20,0 NNO 34,0 1009,1 92 0,25 -
03:19 3,1 1,9 18,0 NNO 23,0 1009,1 92 0,25 -
03:24 3,2 2,0 24,0 NNO 29,0 1008,8 92 0,25 -
03:29 3,2 2,0 20,0 NNO 26,0 1008,8 92 0,25 -
03:34 3,2 2,0 27,0 NNO 29,0 1008,5 92 0,25 -
03:44 3,3 2,1 23,0 NNO 29,0 1008,5 92 - -
03:49 3,3 2,1 20,0 NNO 31,0 1008,5 92 0,25 -
03:54 3,3 2,1 29,0 NNO 32,0 1008,5 92 0,25 -
03:59 3,3 2,1 16,0 NO 32,0 1008,5 92 0,25 -
04:04 3,3 2,1 23,0 NNO 35,0 1008,5 92 0,25 -
04:09 3,3 2,1 27,0 NO 35,0 1008,5 92 0,25 -
04:14 3,3 2,1 29,0 NNO 35,0 1008,5 92 0,51 -
04:19 3,3 2,1 24,0 NNO 35,0 1008,5 92 0,51 -
04:29 3,3 2,1 24,0 Noorden 27,0 1008,5 92 0,51 -
04:34 3,2 2,0 24,0 NNO 29,0 1008,5 92 0,51 -
04:39 3,2 2,0 24,0 NNO 27,0 1008,5 92 0,51 -
04:44 3,2 2,0 21,0 NNO 29,0 1008,5 92 0,51 -
04:49 3,2 2,0 24,0 NNO 29,0 1008,5 92 0,51 -
04:54 3,1 1,9 26,0 NNO 31,0 1008,5 92 0,51 -
04:59 3,2 2,0 14,0 NNO 31,0 1008,5 92 0,51 -
05:04 3,1 1,9 23,0 NNO 31,0 1008,5 92 0,51 -
05:09 3,2 2,0 29,0 NNO 29,0 1008,5 92 0,51 -
05:14 3,2 2,0 27,0 NNO 27,0 1008,5 92 0,51 -
05:19 3,2 2,0 32,0 NNO 32,0 1008,1 92 0,51 -
05:24 3,2 2,0 23,0 NNO 31,0 1008,1 92 0,51 -
05:29 3,2 2,0 23,0 NNO 31,0 1008,5 92 0,51 -
05:34 3,2 2,0 23,0 NNO 27,0 1008,5 92 0,51 -
05:39 3,2 2,0 20,0 NNO 26,0 1008,5 92 0,51 -
05:44 3,2 2,0 21,0 NNO 27,0 1008,8 92 0,51 -
05:49 3,2 2,0 18,0 NNO 27,0 1008,5 92 0,51 -
05:54 3,2 2,0 23,0 NNO 27,0 1008,8 92 0,76 -
05:59 3,2 2,0 21,0 NNO 24,0 1008,8 92 0,76 -
06:04 3,1 1,9 20,0 NNO 26,0 1008,8 92 1,02 -
06:09 3,0 1,8 24,0 Noorden 29,0 1008,8 92 1,02 -
06:14 3,1 1,9 13,0 NNO 29,0 1008,8 92 0,76 -
06:19 3,1 1,9 23,0 NNO 29,0 1008,8 92 1,02 -
06:24 3,1 1,9 26,0 NNO 29,0 1009,1 92 1,02 -
06:29 3,1 1,9 20,0 Noorden 24,0 1009,1 92 1,02 -
06:34 3,1 1,9 29,0 NNO 29,0 1009,1 92 0,76 -
06:39 3,1 1,9 20,0 Noorden 29,0 1008,8 92 0,76 -
06:44 3,1 1,9 21,0 NNO 29,0 1008,8 92 1,02 -
06:49 3,1 1,9 21,0 Noorden 29,0 1008,8 92 0,76 -
06:54 3,1 1,9 26,0 NNO 32,0 1008,8 92 0,76 -
06:59 3,1 1,9 18,0 NNO 32,0 1008,8 92 0,51 -
07:04 3,1 1,9 24,0 Noorden 24,0 1009,1 92 0,51 5
07:09 3,1 1,9 24,0 NNO 29,0 1008,8 92 0,51 9
07:14 3,1 1,9 31,0 NNO 31,0 1008,8 92 0,51 7
07:19 3,1 1,9 20,0 NNO 29,0 1009,1 92 0,51 7
07:24 3,2 2,0 16,0 NNO 18,0 1009,1 92 0,25 7
07:29 3,2 2,0 16,0 Noorden 26,0 1009,1 92 0,25 9
07:34 3,2 2,0 21,0 NNO 26,0 1009,1 92 0,25 12
07:39 3,2 2,0 18,0 NNO 24,0 1009,1 92 0,25 11
07:44 3,2 1,9 21,0 NNO 23,0 1009,1 91 0,25 21
07:49 3,3 2,0 16,0 NNO 24,0 1009,1 91 - 26
07:54 3,3 2,0 20,0 NNO 27,0 1009,1 91 - 28
07:59 3,3 2,0 21,0 NNO 27,0 1009,5 91 - 28
08:09 3,3 2,0 18,0 Noorden 27,0 1009,5 91 - 39
08:14 3,3 2,0 14,0 NNO 24,0 1009,5 91 - 40
08:19 3,4 2,1 14,0 NNO 21,0 1009,5 91 - 26
08:24 3,4 2,1 24,0 NNO 24,0 1009,5 91 - 56
08:29 3,5 2,2 27,0 NNO 27,0 1009,5 91 - 77
08:34 3,6 2,1 18,0 NNO 27,0 1009,8 90 - 90
08:39 3,7 2,2 23,0 NNO 23,0 1009,8 90 - 93
08:44 3,8 2,2 18,0 Noorden 26,0 1009,8 90 - 93
08:49 3,8 2,3 20,0 NNO 26,0 1009,8 90 - 49
08:54 3,8 2,2 18,0 Noorden 24,0 1010,2 89 - 37
08:59 3,6 2,0 26,0 Noorden 31,0 1010,2 90 0,25 44
09:04 3,3 1,8 21,0 Noorden 31,0 1010,2 90 0,51 63
09:09 3,1 1,8 16,0 NNO 26,0 1010,2 91 0,51 95
09:14 3,2 1,9 20,0 Noorden 26,0 1010,2 91 0,51 86
09:19 3,2 1,9 18,0 Noorden 27,0 1010,2 91 0,51 98
09:24 3,3 2,1 18,0 NNO 27,0 1010,2 92 0,51 86

Download your copy of this data-set  here

Our weather-data as stored at Weather Underground. Script ontwikkeld door Jim McMurry. Rewritten for template use Leuven-Template

Apparatuur in gebruik:

Weerstation
Davis Vantage pro 2

Weerprogramma
Meteobridge

Weercomputer
Meteobridge Nano SD

Webleverancier
Versio

Davis Vantage pro 2

Meteobridge

Meteobridge Nano SD

Versio